sat.trackr.live / text

‹ back to catalog

STARLINK-3605

NORAD 51805 · 2022-017AP

PAYLOAD ACTIVE UNKNOWN

§ Identity

Operator
Country
US
Launch date
2022-02-25
Launch site
AFWTR
Launch vehicle
Mass (kg)
RCS (m²)

Purposes: comms

External: N2YO · Heavens-Above · Gunter

§ Orbital elements

Epoch: 2026-09-20T00:27:08.373024Z

Period
93.90 min
Inclination
53.1605°
Eccentricity
0.0001315
Mean motion
15.33545217 rev/d
Perigee alt
464.3 km
Apogee alt
466.1 km
Semi-major
6,843.4 km
B*
6.3805e-5
RAAN
166.1224°
Arg perigee
90.7197°
Mean anomaly
269.3956°
Rev number
25,372

§ Raw data

STARLINK-36051 51805U 22017AP  26263.01884691  .00001726  00000+0  63805-4 0  99982 51805  53.1605 166.1224 0001315  90.7197 269.3956 15.33545217253721

JSON: /api/v1/satellites/51805 · /tle

For live sub-satellite position, see the globe view (requires WebGL).

§ Visibility from observer

Set your observer location to see the next 7 days of passes ≥ 10°. The values pass through the URL so the page stays shareable.

No JS? Fill the form by hand. The geolocation button needs JavaScript.